Time,TemperatureF,DewpointF,PressureIn,WindDirection,WindDirectionDegrees,WindSpeedMPH,WindSpeedGustMPH,Humidity,HourlyPrecipIn,Conditions,Clouds,dailyrainin,SoftwareType,DateUTC
2013-04-14 00:00:00,30.7,24.3,29.90,ENE,68,0.0,0.0,77,0.00,,,0.00,WUHU216HW,2013-04-14 05:00:00,
2013-04-14 00:05:00,30.7,24.3,29.90,ENE,68,0.0,0.0,77,0.00,,,0.00,WUHU216HW,2013-04-14 05:05:00,
2013-04-14 00:10:00,30.7,24.3,29.90,ENE,68,0.0,0.0,77,0.00,,,0.00,WUHU216HW,2013-04-14 05:10:00,
2013-04-14 00:15:00,30.5,24.5,29.90,NNE,23,0.0,0.0,78,0.00,,,0.00,WUHU216HW,2013-04-14 05:15:00,
2013-04-14 00:20:00,30.3,24.3,29.90,East,90,0.0,0.0,78,0.00,,,0.00,WUHU216HW,2013-04-14 05:20:00,
2013-04-14 00:25:00,30.3,24.3,29.90,ENE,68,0.0,0.0,78,0.00,,,0.00,WUHU216HW,2013-04-14 05:25:00,
2013-04-14 00:30:00,30.2,24.1,29.89,ENE,68,0.0,0.0,78,0.00,,,0.00,WUHU216HW,2013-04-14 05:30:00,
2013-04-14 00:35:00,30.3,24.3,29.89,ENE,68,0.0,0.0,78,0.00,,,0.00,WUHU216HW,2013-04-14 05:35:00,
2013-04-14 00:40:00,30.3,24.3,29.89,ENE,68,0.0,0.0,78,0.00,,,0.00,WUHU216HW,2013-04-14 05:40:00,
2013-04-14 00:45:00,30.5,24.5,29.89,NE,45,0.0,0.0,78,0.00,,,0.00,WUHU216HW,2013-04-14 05:45:00,
2013-04-14 00:50:00,30.7,24.6,29.89,ENE,68,0.0,0.0,78,0.00,,,0.00,WUHU216HW,2013-04-14 05:50:00,
2013-04-14 00:55:00,30.7,24.6,29.89,NE,45,0.0,0.0,78,0.00,,,0.00,WUHU216HW,2013-04-14 05:55:00,
2013-04-14 01:01:00,30.7,24.6,29.88,NE,45,0.0,0.0,78,0.00,,,0.00,WUHU216HW,2013-04-14 06:01:00,
2013-04-14 01:06:00,30.9,24.8,29.88,ENE,68,0.0,0.0,78,0.00,,,0.00,WUHU216HW,2013-04-14 06:06:00,
2013-04-14 01:11:00,30.9,24.8,29.89,ENE,68,0.0,0.0,78,0.00,,,0.00,WUHU216HW,2013-04-14 06:11:00,
2013-04-14 01:16:00,30.9,24.8,29.88,East,90,0.0,0.0,78,0.00,,,0.00,WUHU216HW,2013-04-14 06:16:00,
2013-04-14 01:21:00,31.1,25.0,29.88,East,90,0.0,0.0,78,0.00,,,0.00,WUHU216HW,2013-04-14 06:21:00,
2013-04-14 01:26:00,31.2,25.2,29.88,East,90,0.0,0.0,78,0.00,,,0.00,WUHU216HW,2013-04-14 06:26:00,
2013-04-14 01:31:00,31.2,25.2,29.87,NE,45,0.0,0.0,78,0.00,,,0.00,WUHU216HW,2013-04-14 06:31:00,
2013-04-14 01:36:00,31.4,25.4,29.87,ENE,68,0.0,0.0,78,0.00,,,0.00,WUHU216HW,2013-04-14 06:36:00,
2013-04-14 01:41:00,31.6,25.5,29.87,ENE,68,0.0,0.0,78,0.00,,,0.00,WUHU216HW,2013-04-14 06:41:00,
2013-04-14 01:46:00,31.6,25.5,29.87,ENE,68,0.0,0.0,78,0.00,,,0.00,WUHU216HW,2013-04-14 06:46:00,
2013-04-14 01:51:00,31.6,25.5,29.87,East,90,0.0,0.0,78,0.00,,,0.00,WUHU216HW,2013-04-14 06:51:00,
2013-04-14 01:56:00,31.6,25.5,29.87,ENE,68,0.0,0.0,78,0.00,,,0.00,WUHU216HW,2013-04-14 06:56:00,
2013-04-14 02:01:00,31.6,25.5,29.87,ENE,68,0.0,0.0,78,0.00,,,0.00,WUHU216HW,2013-04-14 07:01:00,
2013-04-14 02:06:00,31.6,25.9,29.86,NE,45,0.0,0.0,79,0.00,,,0.00,WUHU216HW,2013-04-14 07:06:00,
2013-04-14 02:11:00,31.6,25.9,29.85,ENE,68,0.0,0.0,79,0.00,,,0.00,WUHU216HW,2013-04-14 07:11:00,
2013-04-14 02:16:00,31.6,26.2,29.85,East,90,0.0,0.0,80,0.00,,,0.00,WUHU216HW,2013-04-14 07:16:00,
2013-04-14 02:21:00,31.6,26.2,29.85,ENE,68,0.0,0.0,80,0.00,,,0.00,WUHU216HW,2013-04-14 07:21:00,
2013-04-14 02:26:00,31.6,26.2,29.84,ENE,68,0.0,0.0,80,0.00,,,0.00,WUHU216HW,2013-04-14 07:26:00,
2013-04-14 02:31:00,31.6,26.2,29.85,ENE,68,0.0,0.0,80,0.00,,,0.00,WUHU216HW,2013-04-14 07:31:00,
2013-04-14 02:36:00,31.6,26.2,29.85,East,90,0.0,0.0,80,0.00,,,0.00,WUHU216HW,2013-04-14 07:36:00,
2013-04-14 02:41:00,31.6,26.2,29.84,ENE,68,0.0,0.0,80,0.00,,,0.00,WUHU216HW,2013-04-14 07:41:00,
2013-04-14 02:46:00,31.6,26.2,29.85,ENE,68,0.0,0.0,80,0.00,,,0.00,WUHU216HW,2013-04-14 07:46:00,
2013-04-14 02:52:00,31.6,26.2,29.85,ENE,68,0.0,0.0,80,0.00,,,0.00,WUHU216HW,2013-04-14 07:52:00,
2013-04-14 02:57:00,31.6,26.2,29.85,East,90,0.0,0.0,80,0.00,,,0.00,WUHU216HW,2013-04-14 07:57:00,
2013-04-14 03:02:00,31.6,26.2,29.85,ESE,113,0.0,0.0,80,0.00,,,0.00,WUHU216HW,2013-04-14 08:02:00,
2013-04-14 03:07:00,31.6,26.2,29.85,ENE,68,0.0,0.0,80,0.00,,,0.00,WUHU216HW,2013-04-14 08:07:00,
2013-04-14 03:12:00,31.6,26.2,29.85,ENE,68,0.0,0.0,80,0.00,,,0.00,WUHU216HW,2013-04-14 08:12:00,
2013-04-14 03:17:00,31.6,26.2,29.85,ENE,68,0.0,0.0,80,0.00,,,0.00,WUHU216HW,2013-04-14 08:17:00,
2013-04-14 03:22:00,31.6,26.2,29.85,ESE,113,0.0,0.0,80,0.00,,,0.00,WUHU216HW,2013-04-14 08:22:00,
2013-04-14 03:27:00,31.6,26.2,29.85,ENE,68,0.0,0.0,80,0.00,,,0.00,WUHU216HW,2013-04-14 08:27:00,
2013-04-14 03:32:00,31.6,26.2,29.85,East,90,0.0,0.0,80,0.00,,,0.00,WUHU216HW,2013-04-14 08:32:00,
2013-04-14 03:37:00,31.6,26.2,29.84,East,90,0.0,0.0,80,0.00,,,0.00,WUHU216HW,2013-04-14 08:37:00,
2013-04-14 03:42:00,31.6,26.5,29.85,East,90,0.0,0.0,81,0.00,,,0.00,WUHU216HW,2013-04-14 08:42:00,
2013-04-14 03:47:00,31.6,26.5,29.85,ENE,68,0.0,0.0,81,0.00,,,0.00,WUHU216HW,2013-04-14 08:47:00,
2013-04-14 03:52:00,31.2,26.1,29.84,East,90,0.0,0.0,81,0.00,,,0.00,WUHU216HW,2013-04-14 08:52:00,
2013-04-14 03:57:00,31.2,26.1,29.85,East,90,0.0,0.0,81,0.00,,,0.00,WUHU216HW,2013-04-14 08:57:00,
2013-04-14 04:02:00,31.2,26.1,29.85,ENE,68,0.0,0.0,81,0.00,,,0.00,WUHU216HW,2013-04-14 09:02:00,
2013-04-14 04:07:00,31.2,26.4,29.84,NE,45,0.0,0.0,82,0.00,,,0.00,WUHU216HW,2013-04-14 09:07:00,
2013-04-14 04:12:00,31.2,26.4,29.84,ESE,113,0.0,0.0,82,0.00,,,0.00,WUHU216HW,2013-04-14 09:12:00,
2013-04-14 04:17:00,31.2,26.4,29.84,ENE,68,0.0,0.0,82,0.00,,,0.00,WUHU216HW,2013-04-14 09:17:00,
2013-04-14 04:22:00,31.1,26.2,29.83,East,90,0.0,0.0,82,0.00,,,0.00,WUHU216HW,2013-04-14 09:22:00,
2013-04-14 04:27:00,31.1,26.5,29.84,NE,45,0.0,0.0,83,0.00,,,0.00,WUHU216HW,2013-04-14 09:27:00,
2013-04-14 04:32:00,31.1,26.5,29.84,East,90,0.0,0.0,83,0.00,,,0.00,WUHU216HW,2013-04-14 09:32:00,
2013-04-14 04:37:00,31.1,26.5,29.84,ENE,68,0.0,0.0,83,0.00,,,0.00,WUHU216HW,2013-04-14 09:37:00,
2013-04-14 04:42:00,30.9,26.6,29.84,East,90,0.0,0.0,84,0.00,,,0.00,WUHU216HW,2013-04-14 09:42:00,
2013-04-14 04:47:00,30.9,26.6,29.84,NE,45,0.0,0.0,84,0.00,,,0.00,WUHU216HW,2013-04-14 09:47:00,
2013-04-14 04:52:00,30.7,26.4,29.83,East,90,0.0,0.0,84,0.00,,,0.00,WUHU216HW,2013-04-14 09:52:00,
2013-04-14 04:57:00,30.7,26.7,29.83,East,90,0.0,0.0,85,0.00,,,0.00,WUHU216HW,2013-04-14 09:57:00,
2013-04-14 05:02:00,30.5,26.6,29.83,ENE,68,0.0,0.0,85,0.00,,,0.00,WUHU216HW,2013-04-14 10:02:00,
2013-04-14 05:07:00,30.3,26.4,29.82,ENE,68,0.0,0.0,85,0.00,,,0.00,WUHU216HW,2013-04-14 10:07:00,
2013-04-14 05:12:00,30.3,26.4,29.83,ENE,68,0.0,0.0,85,0.00,,,0.00,WUHU216HW,2013-04-14 10:12:00,
2013-04-14 05:17:00,30.3,26.1,29.83,NE,45,0.0,0.0,84,0.00,,,0.00,WUHU216HW,2013-04-14 10:17:00,
2013-04-14 05:22:00,30.3,26.1,29.83,NE,45,0.0,0.0,84,0.00,,,0.00,WUHU216HW,2013-04-14 10:22:00,
2013-04-14 05:27:00,30.5,26.0,29.83,ENE,68,0.0,0.0,83,0.00,,,0.00,WUHU216HW,2013-04-14 10:27:00,
2013-04-14 05:32:00,30.5,25.7,29.83,ESE,113,0.0,0.0,82,0.00,,,0.00,WUHU216HW,2013-04-14 10:32:00,
2013-04-14 05:37:00,30.7,25.9,29.83,ENE,68,0.0,0.0,82,0.00,,,0.00,WUHU216HW,2013-04-14 10:37:00,
2013-04-14 05:42:00,30.7,25.6,29.83,NE,45,0.0,0.0,81,0.00,,,0.00,WUHU216HW,2013-04-14 10:42:00,
2013-04-14 05:47:00,30.7,25.6,29.82,East,90,0.0,0.0,81,0.00,,,0.00,WUHU216HW,2013-04-14 10:47:00,
2013-04-14 05:52:00,30.7,25.6,29.81,East,90,0.0,0.0,81,0.00,,,0.00,WUHU216HW,2013-04-14 10:52:00,
2013-04-14 05:57:00,30.7,25.3,29.81,NE,45,0.0,0.0,80,0.00,,,0.00,WUHU216HW,2013-04-14 10:57:00,
2013-04-14 06:02:00,30.7,25.3,29.81,ENE,68,0.0,0.0,80,0.00,,,0.00,WUHU216HW,2013-04-14 11:02:00,
2013-04-14 06:07:00,30.9,25.5,29.80,NE,45,0.0,0.0,80,0.00,,,0.00,WUHU216HW,2013-04-14 11:07:00,
2013-04-14 06:12:00,30.9,25.5,29.80,ENE,68,0.0,0.0,80,0.00,,,0.00,WUHU216HW,2013-04-14 11:12:00,
2013-04-14 06:17:00,30.9,25.5,29.80,ENE,68,0.0,0.0,80,0.00,,,0.00,WUHU216HW,2013-04-14 11:17:00,
2013-04-14 06:22:00,30.9,25.1,29.80,ESE,113,0.0,0.0,79,0.00,,,0.00,WUHU216HW,2013-04-14 11:22:00,
2013-04-14 06:27:00,30.9,25.1,29.79,ESE,113,0.0,0.0,79,0.00,,,0.00,WUHU216HW,2013-04-14 11:27:00,
2013-04-14 06:32:00,31.1,25.3,29.79,NE,45,0.0,0.0,79,0.00,,,0.00,WUHU216HW,2013-04-14 11:32:00,
2013-04-14 06:37:00,31.1,25.3,29.79,ENE,68,0.0,0.0,79,0.00,,,0.00,WUHU216HW,2013-04-14 11:37:00,
2013-04-14 06:42:00,31.1,25.0,29.79,ENE,68,0.0,0.0,78,0.00,,,0.00,WUHU216HW,2013-04-14 11:42:00,
2013-04-14 06:47:00,31.2,25.2,29.79,NE,45,0.0,0.0,78,0.00,,,0.00,WUHU216HW,2013-04-14 11:47:00,
2013-04-14 06:52:00,31.2,25.2,29.79,ENE,68,0.0,0.0,78,0.00,,,0.00,WUHU216HW,2013-04-14 11:52:00,
2013-04-14 06:57:00,31.2,25.2,29.79,NE,45,0.0,0.0,78,0.00,,,0.00,WUHU216HW,2013-04-14 11:57:00,
2013-04-14 07:02:00,31.4,25.0,29.79,NE,45,0.0,0.0,77,0.00,,,0.00,WUHU216HW,2013-04-14 12:02:00,
2013-04-14 07:07:00,31.6,25.2,29.79,East,90,0.0,0.0,77,0.00,,,0.00,WUHU216HW,2013-04-14 12:07:00,
2013-04-14 07:12:00,31.6,25.2,29.79,NE,45,0.0,0.0,77,0.00,,,0.00,WUHU216HW,2013-04-14 12:12:00,
2013-04-14 07:17:00,31.6,25.2,29.78,NE,45,0.0,0.0,77,0.00,,,0.00,WUHU216HW,2013-04-14 12:17:00,
2013-04-14 07:22:00,31.6,25.2,29.79,NE,45,0.0,0.0,77,0.00,,,0.00,WUHU216HW,2013-04-14 12:22:00,
2013-04-14 07:27:00,31.6,24.9,29.79,East,90,0.0,0.0,76,0.00,,,0.00,WUHU216HW,2013-04-14 12:27:00,
2013-04-14 07:32:00,31.6,24.9,29.79,ENE,68,0.0,0.0,76,0.00,,,0.00,WUHU216HW,2013-04-14 12:32:00,
2013-04-14 07:37:00,31.6,24.6,29.78,ENE,68,0.0,0.0,75,0.00,,,0.00,WUHU216HW,2013-04-14 12:37:00,
2013-04-14 07:42:00,31.6,24.6,29.78,NE,45,0.0,0.0,75,0.00,,,0.00,WUHU216HW,2013-04-14 12:42:00,
2013-04-14 07:47:00,31.6,24.6,29.78,East,90,0.0,0.0,75,0.00,,,0.00,WUHU216HW,2013-04-14 12:47:00,
2013-04-14 07:52:00,31.6,24.6,29.78,East,90,0.0,0.0,75,0.00,,,0.00,WUHU216HW,2013-04-14 12:52:00,
2013-04-14 07:57:00,31.6,24.6,29.78,ENE,68,0.0,0.0,75,0.00,,,0.00,WUHU216HW,2013-04-14 12:57:00,
2013-04-14 08:02:00,31.8,24.8,29.77,NE,45,0.0,0.0,75,0.00,,,0.00,WUHU216HW,2013-04-14 13:02:00,
2013-04-14 08:07:00,31.6,24.6,29.77,ENE,68,0.0,0.0,75,0.00,,,0.00,WUHU216HW,2013-04-14 13:07:00,
2013-04-14 08:12:00,31.8,25.1,29.76,ENE,68,0.0,0.0,76,0.00,,,0.00,WUHU216HW,2013-04-14 13:12:00,
2013-04-14 08:17:00,31.2,25.2,29.76,ENE,68,0.0,0.0,78,0.00,,,0.00,WUHU216HW,2013-04-14 13:17:00,
2013-04-14 08:22:00,31.2,25.2,29.76,East,90,0.0,0.0,78,0.00,,,0.00,WUHU216HW,2013-04-14 13:22:00,
2013-04-14 08:27:00,31.2,25.2,29.75,ESE,113,0.0,0.0,78,0.00,,,0.00,WUHU216HW,2013-04-14 13:27:00,
2013-04-14 08:32:00,31.1,25.7,29.75,ENE,68,0.0,0.0,80,0.00,,,0.00,WUHU216HW,2013-04-14 13:32:00,
2013-04-14 08:37:00,31.1,25.7,29.75,East,90,0.0,0.0,80,0.00,,,0.00,WUHU216HW,2013-04-14 13:37:00,
2013-04-14 08:42:00,30.9,25.8,29.75,NE,45,0.0,0.0,81,0.00,,,0.00,WUHU216HW,2013-04-14 13:42:00,
2013-04-14 08:47:00,30.7,25.9,29.74,ENE,68,0.0,0.0,82,0.00,,,0.00,WUHU216HW,2013-04-14 13:47:00,
2013-04-14 08:52:00,30.7,25.9,29.74,NE,45,0.0,0.0,82,0.00,,,0.00,WUHU216HW,2013-04-14 13:52:00,
2013-04-14 08:57:00,30.7,26.2,29.74,ENE,68,0.0,0.0,83,0.00,,,0.00,WUHU216HW,2013-04-14 13:57:00,
2013-04-14 09:02:00,30.7,26.4,29.73,ENE,68,0.0,0.0,84,0.00,,,0.00,WUHU216HW,2013-04-14 14:02:00,
2013-04-14 09:07:00,30.7,26.4,29.73,ESE,113,0.0,0.0,84,0.00,,,0.00,WUHU216HW,2013-04-14 14:07:00,
2013-04-14 09:12:00,30.7,26.4,29.72,NE,45,0.0,0.0,84,0.00,,,0.00,WUHU216HW,2013-04-14 14:12:00,
2013-04-14 09:17:00,31.1,26.8,29.71,ENE,68,0.0,0.0,84,0.00,,,0.00,WUHU216HW,2013-04-14 14:17:00,
2013-04-14 09:22:00,31.2,27.0,29.71,ENE,68,0.0,0.0,84,0.00,,,0.00,WUHU216HW,2013-04-14 14:22:00,
2013-04-14 09:27:00,31.4,27.2,29.70,ENE,68,0.0,0.0,84,0.00,,,0.00,WUHU216HW,2013-04-14 14:27:00,
2013-04-14 09:32:00,31.2,27.0,29.69,ENE,68,0.0,0.0,84,0.00,,,0.00,WUHU216HW,2013-04-14 14:32:00,
2013-04-14 09:37:00,31.6,27.3,29.69,ENE,68,0.0,0.0,84,0.00,,,0.00,WUHU216HW,2013-04-14 14:37:00,
2013-04-14 09:43:00,31.6,27.3,29.69,ENE,68,0.0,0.0,84,0.00,,,0.00,WUHU216HW,2013-04-14 14:43:00,
2013-04-14 09:48:00,31.6,27.3,29.69,ENE,68,0.0,0.0,84,0.00,,,0.00,WUHU216HW,2013-04-14 14:48:00,
2013-04-14 09:53:00,31.6,27.3,29.69,ESE,113,0.0,0.0,84,0.00,,,0.00,WUHU216HW,2013-04-14 14:53:00,
2013-04-14 09:58:00,31.6,27.3,29.69,East,90,0.0,0.0,84,0.00,,,0.00,WUHU216HW,2013-04-14 14:58:00,
2013-04-14 10:03:00,31.6,27.3,29.68,ENE,68,0.0,0.0,84,0.00,,,0.00,WUHU216HW,2013-04-14 15:03:00,
2013-04-14 10:08:00,31.4,27.2,29.68,East,90,0.0,0.0,84,0.00,,,0.00,WUHU216HW,2013-04-14 15:08:00,
2013-04-14 10:13:00,31.4,27.2,29.68,NE,45,0.0,0.0,84,0.00,,,0.00,WUHU216HW,2013-04-14 15:13:00,
2013-04-14 10:18:00,31.4,27.5,29.68,ESE,113,0.0,0.0,85,0.00,,,0.00,WUHU216HW,2013-04-14 15:18:00,
2013-04-14 10:23:00,31.2,27.3,29.67,NE,45,0.0,0.0,85,0.00,,,0.00,WUHU216HW,2013-04-14 15:23:00,
2013-04-14 10:28:00,31.2,27.3,29.68,NE,45,0.0,0.0,85,0.00,,,0.00,WUHU216HW,2013-04-14 15:28:00,
2013-04-14 10:33:00,31.6,27.9,29.68,ENE,68,0.0,0.0,86,0.00,,,0.00,WUHU216HW,2013-04-14 15:33:00,
2013-04-14 10:38:00,31.6,27.9,29.68,NE,45,0.0,0.0,86,0.00,,,0.00,WUHU216HW,2013-04-14 15:38:00,
2013-04-14 10:43:00,31.6,27.9,29.67,ENE,68,0.0,0.0,86,0.00,,,0.00,WUHU216HW,2013-04-14 15:43:00,
2013-04-14 10:48:00,31.6,27.9,29.66,NE,45,0.0,0.0,86,0.00,,,0.00,WUHU216HW,2013-04-14 15:48:00,
2013-04-14 10:53:00,31.8,28.4,29.66,East,90,0.0,0.0,87,0.00,,,0.00,WUHU216HW,2013-04-14 15:53:00,
2013-04-14 10:58:00,31.8,28.4,29.66,SE,135,0.0,0.0,87,0.00,,,0.00,WUHU216HW,2013-04-14 15:58:00,
2013-04-14 11:03:00,31.8,28.4,29.66,NE,45,0.0,0.0,87,0.00,,,0.00,WUHU216HW,2013-04-14 16:03:00,
2013-04-14 11:08:00,32.1,28.7,29.66,East,90,0.0,0.0,87,0.00,,,0.00,WUHU216HW,2013-04-14 16:08:00,
2013-04-14 11:13:00,32.1,28.7,29.66,ENE,68,0.0,0.0,87,0.00,,,0.00,WUHU216HW,2013-04-14 16:13:00,
2013-04-14 11:18:00,31.8,28.4,29.67,NE,45,0.0,0.0,87,0.00,,,0.00,WUHU216HW,2013-04-14 16:18:00,
2013-04-14 11:23:00,31.8,28.4,29.66,East,90,0.0,0.0,87,0.00,,,0.00,WUHU216HW,2013-04-14 16:23:00,
2013-04-14 11:28:00,32.1,28.7,29.66,East,90,0.0,0.0,87,0.00,,,0.00,WUHU216HW,2013-04-14 16:28:00,
2013-04-14 11:33:00,32.3,29.2,29.66,ESE,113,0.0,0.0,88,0.00,,,0.00,WUHU216HW,2013-04-14 16:33:00,
2013-04-14 11:38:00,32.5,29.3,29.66,ESE,113,0.0,0.0,88,0.00,,,0.00,WUHU216HW,2013-04-14 16:38:00,
2013-04-14 11:43:00,32.5,29.3,29.66,East,90,0.0,0.0,88,0.00,,,0.00,WUHU216HW,2013-04-14 16:43:00,
2013-04-14 11:48:00,32.9,29.7,29.65,East,90,0.0,0.0,88,0.00,,,0.00,WUHU216HW,2013-04-14 16:48:00,
2013-04-14 11:53:00,33.0,29.8,29.65,ENE,68,0.0,0.0,88,0.00,,,0.00,WUHU216HW,2013-04-14 16:53:00,
2013-04-14 11:58:00,33.2,29.7,29.65,ESE,113,0.0,0.0,87,0.00,,,0.00,WUHU216HW,2013-04-14 16:58:00,
2013-04-14 12:03:00,33.4,29.9,29.65,East,90,0.0,0.0,87,0.00,,,0.00,WUHU216HW,2013-04-14 17:03:00,
2013-04-14 12:08:00,33.4,29.9,29.64,East,90,0.0,0.0,87,0.00,,,0.00,WUHU216HW,2013-04-14 17:08:00,
2013-04-14 12:13:00,33.2,29.7,29.64,East,90,0.0,0.0,87,0.00,,,0.00,WUHU216HW,2013-04-14 17:13:00,
2013-04-14 12:18:00,33.2,29.7,29.64,ENE,68,0.0,0.0,87,0.00,,,0.00,WUHU216HW,2013-04-14 17:18:00,
2013-04-14 12:23:00,33.0,29.5,29.64,ESE,113,0.0,0.0,87,0.00,,,0.00,WUHU216HW,2013-04-14 17:23:00,
2013-04-14 12:28:00,33.2,29.7,29.63,NE,45,0.0,0.0,87,0.02,,,0.02,WUHU216HW,2013-04-14 17:28:00,
2013-04-14 12:33:00,33.2,29.7,29.63,NE,45,0.0,0.0,87,0.04,,,0.02,WUHU216HW,2013-04-14 17:33:00,
2013-04-14 12:38:00,33.4,30.2,29.62,ESE,113,0.0,0.0,88,0.04,,,0.04,WUHU216HW,2013-04-14 17:38:00,
2013-04-14 12:43:00,33.8,30.3,29.62,East,90,0.0,0.0,88,0.06,,,0.06,WUHU216HW,2013-04-14 17:43:00,
2013-04-14 12:48:00,33.6,30.0,29.61,East,90,0.0,0.0,87,0.06,,,0.06,WUHU216HW,2013-04-14 17:48:00,
2013-04-14 12:53:00,33.6,30.0,29.61,ESE,113,0.0,0.0,87,0.08,,,0.08,WUHU216HW,2013-04-14 17:53:00,
2013-04-14 12:58:00,33.4,29.9,29.61,East,90,0.0,0.0,87,0.08,,,0.08,WUHU216HW,2013-04-14 17:58:00,
2013-04-14 13:03:00,33.6,30.0,29.60,East,90,0.0,0.0,87,0.08,,,0.08,WUHU216HW,2013-04-14 18:03:00,
2013-04-14 13:08:00,33.6,30.3,29.59,ESE,113,0.0,0.0,88,0.10,,,0.10,WUHU216HW,2013-04-14 18:08:00,
2013-04-14 13:13:00,33.4,30.2,29.59,ESE,113,0.0,0.0,88,0.10,,,0.10,WUHU216HW,2013-04-14 18:13:00,
2013-04-14 13:18:00,33.6,30.3,29.59,ESE,113,0.0,0.0,88,0.10,,,0.10,WUHU216HW,2013-04-14 18:18:00,
2013-04-14 13:23:00,33.4,29.9,29.58,ESE,113,0.0,0.0,87,0.08,,,0.10,WUHU216HW,2013-04-14 18:23:00,
2013-04-14 13:28:00,33.4,30.2,29.58,ESE,113,0.0,0.0,88,0.10,,,0.12,WUHU216HW,2013-04-14 18:28:00,
2013-04-14 13:33:00,33.6,30.3,29.58,ESE,113,0.0,0.0,88,0.08,,,0.12,WUHU216HW,2013-04-14 18:33:00,
2013-04-14 13:38:00,33.6,30.3,29.58,ESE,113,0.0,0.0,88,0.08,,,0.12,WUHU216HW,2013-04-14 18:38:00,
2013-04-14 13:43:00,33.4,29.9,29.58,ESE,113,0.0,0.0,87,0.06,,,0.12,WUHU216HW,2013-04-14 18:43:00,
2013-04-14 13:48:00,33.4,30.2,29.58,ESE,113,0.0,0.0,88,0.06,,,0.12,WUHU216HW,2013-04-14 18:48:00,
2013-04-14 13:53:00,33.4,30.2,29.58,ESE,113,0.0,0.0,88,0.04,,,0.12,WUHU216HW,2013-04-14 18:53:00,
2013-04-14 13:58:00,33.4,30.2,29.58,ESE,113,0.0,0.0,88,0.04,,,0.12,WUHU216HW,2013-04-14 18:58:00,
2013-04-14 14:03:00,33.4,30.2,29.58,ESE,113,0.0,0.0,88,0.06,,,0.14,WUHU216HW,2013-04-14 19:03:00,
2013-04-14 14:08:00,33.4,30.2,29.57,ESE,113,0.0,0.0,88,0.04,,,0.14,WUHU216HW,2013-04-14 19:08:00,
2013-04-14 14:13:00,33.4,30.2,29.57,ESE,113,0.0,0.0,88,0.04,,,0.14,WUHU216HW,2013-04-14 19:13:00,
2013-04-14 14:18:00,33.4,30.2,29.57,ESE,113,0.0,0.0,88,0.04,,,0.14,WUHU216HW,2013-04-14 19:18:00,
2013-04-14 14:23:00,33.4,30.2,29.57,ESE,113,0.0,0.0,88,0.02,,,0.14,WUHU216HW,2013-04-14 19:23:00,
2013-04-14 14:28:00,33.4,30.2,29.56,ESE,113,0.0,0.0,88,0.02,,,0.14,WUHU216HW,2013-04-14 19:28:00,
2013-04-14 14:33:00,33.4,30.2,29.56,ESE,113,0.0,0.0,88,0.02,,,0.14,WUHU216HW,2013-04-14 19:33:00,
2013-04-14 14:38:00,33.4,30.2,29.56,ESE,113,0.0,0.0,88,0.02,,,0.14,WUHU216HW,2013-04-14 19:38:00,
2013-04-14 14:43:00,33.4,30.2,29.56,ESE,113,0.0,0.0,88,0.02,,,0.14,WUHU216HW,2013-04-14 19:43:00,
2013-04-14 14:48:00,33.2,30.0,29.56,ESE,113,0.0,0.0,88,0.02,,,0.14,WUHU216HW,2013-04-14 19:48:00,
2013-04-14 14:53:00,33.2,30.0,29.56,ESE,113,0.0,0.0,88,0.02,,,0.14,WUHU216HW,2013-04-14 19:53:00,
2013-04-14 14:58:00,33.2,30.0,29.55,ESE,113,0.0,0.0,88,0.00,,,0.14,WUHU216HW,2013-04-14 19:58:00,
2013-04-14 15:03:00,33.2,30.0,29.54,ESE,113,0.0,0.0,88,0.00,,,0.14,WUHU216HW,2013-04-14 20:03:00,
2013-04-14 15:08:00,33.2,30.0,29.55,ESE,113,0.0,0.0,88,0.00,,,0.14,WUHU216HW,2013-04-14 20:08:00,
2013-04-14 15:13:00,33.4,30.0,29.55,ESE,113,0.0,0.0,88,0.00,,,0.14,WUHU216HW,2013-04-14 20:13:00,
2013-04-14 15:18:00,33.2,30.0,29.54,ESE,113,0.0,0.0,88,0.00,,,0.14,WUHU216HW,2013-04-14 20:18:00,
2013-04-14 15:23:00,33.4,30.2,29.54,ESE,113,0.0,0.0,88,0.00,,,0.14,WUHU216HW,2013-04-14 20:23:00,
2013-04-14 15:28:00,33.2,30.0,29.54,ESE,113,0.0,0.0,88,0.00,,,0.14,WUHU216HW,2013-04-14 20:28:00,
2013-04-14 15:33:00,33.2,30.3,29.53,ESE,113,0.0,0.0,89,0.00,,,0.14,WUHU216HW,2013-04-14 20:33:00,
2013-04-14 15:38:00,33.0,30.1,29.53,ESE,113,0.0,0.0,89,0.00,,,0.14,WUHU216HW,2013-04-14 20:38:00,
2013-04-14 15:43:00,33.0,30.1,29.52,ESE,113,0.0,0.0,89,0.00,,,0.14,WUHU216HW,2013-04-14 20:43:00,
2013-04-14 15:48:00,33.0,30.1,29.52,ESE,113,0.0,0.0,89,0.00,,,0.14,WUHU216HW,2013-04-14 20:48:00,
2013-04-14 15:53:00,33.0,30.1,29.52,ESE,113,0.0,0.0,89,0.00,,,0.14,WUHU216HW,2013-04-14 20:53:00,
2013-04-14 15:58:00,33.0,30.1,29.51,ESE,113,0.0,0.0,89,0.00,,,0.14,WUHU216HW,2013-04-14 20:58:00,
2013-04-14 16:03:00,33.0,30.1,29.51,ESE,113,0.0,0.0,89,0.00,,,0.14,WUHU216HW,2013-04-14 21:03:00,
2013-04-14 16:08:00,33.4,30.4,29.51,ESE,113,0.0,0.0,89,0.00,,,0.14,WUHU216HW,2013-04-14 21:08:00,
2013-04-14 16:13:00,33.2,30.3,29.50,ESE,113,0.0,0.0,89,0.00,,,0.14,WUHU216HW,2013-04-14 21:13:00,
2013-04-14 16:18:00,33.4,30.4,29.50,ESE,113,0.0,0.0,89,0.00,,,0.14,WUHU216HW,2013-04-14 21:18:00,
2013-04-14 16:23:00,33.4,30.4,29.50,ESE,113,0.0,0.0,89,0.00,,,0.14,WUHU216HW,2013-04-14 21:23:00,
2013-04-14 16:28:00,33.6,30.6,29.49,ESE,113,0.0,0.0,89,0.02,,,0.16,WUHU216HW,2013-04-14 21:28:00,
2013-04-14 16:33:00,33.4,30.4,29.49,ESE,113,0.0,0.0,89,0.02,,,0.16,WUHU216HW,2013-04-14 21:33:00,
2013-04-14 16:38:00,33.4,30.4,29.49,ESE,113,0.0,0.0,89,0.02,,,0.16,WUHU216HW,2013-04-14 21:38:00,
2013-04-14 16:43:00,33.4,30.4,29.49,ESE,113,0.0,0.0,89,0.04,,,0.18,WUHU216HW,2013-04-14 21:43:00,
2013-04-14 16:48:00,33.6,30.6,29.48,ESE,113,0.0,0.0,89,0.04,,,0.18,WUHU216HW,2013-04-14 21:48:00,
2013-04-14 16:53:00,33.4,30.4,29.48,ESE,113,0.0,0.0,89,0.04,,,0.18,WUHU216HW,2013-04-14 21:53:00,
2013-04-14 16:58:00,33.6,30.6,29.48,ESE,113,0.0,0.0,89,0.04,,,0.18,WUHU216HW,2013-04-14 21:58:00,
2013-04-14 17:03:00,33.6,30.6,29.48,ESE,113,0.0,0.0,89,0.04,,,0.18,WUHU216HW,2013-04-14 22:03:00,
2013-04-14 17:08:00,33.6,30.6,29.48,ESE,113,0.0,0.0,89,0.04,,,0.18,WUHU216HW,2013-04-14 22:08:00,
2013-04-14 17:14:00,33.4,30.4,29.47,ESE,113,0.0,0.0,89,0.04,,,0.18,WUHU216HW,2013-04-14 22:14:00,
2013-04-14 17:19:00,33.4,30.4,29.47,ESE,113,0.0,0.0,89,0.06,,,0.20,WUHU216HW,2013-04-14 22:19:00,
2013-04-14 17:24:00,33.4,30.4,29.47,ESE,113,0.0,0.0,89,0.04,,,0.20,WUHU216HW,2013-04-14 22:24:00,
2013-04-14 17:29:00,33.4,30.4,29.47,ESE,113,0.0,0.0,89,0.04,,,0.20,WUHU216HW,2013-04-14 22:29:00,
2013-04-14 17:34:00,33.4,30.4,29.46,ESE,113,0.0,0.0,89,0.04,,,0.20,WUHU216HW,2013-04-14 22:34:00,
2013-04-14 17:39:00,33.4,30.4,29.47,ESE,113,0.0,0.0,89,0.04,,,0.20,WUHU216HW,2013-04-14 22:39:00,
2013-04-14 17:44:00,33.4,30.4,29.47,ESE,113,0.0,0.0,89,0.04,,,0.22,WUHU216HW,2013-04-14 22:44:00,
2013-04-14 17:49:00,33.4,30.4,29.47,ESE,113,0.0,0.0,89,0.04,,,0.22,WUHU216HW,2013-04-14 22:49:00,
2013-04-14 17:54:00,33.4,30.4,29.47,ESE,113,0.0,0.0,89,0.06,,,0.24,WUHU216HW,2013-04-14 22:54:00,
2013-04-14 17:59:00,33.4,30.4,29.47,ESE,113,0.0,0.0,89,0.06,,,0.24,WUHU216HW,2013-04-14 22:59:00,
2013-04-14 18:04:00,33.4,30.4,29.47,ESE,113,0.0,0.0,89,0.06,,,0.24,WUHU216HW,2013-04-14 23:04:00,
2013-04-14 18:09:00,33.6,30.9,29.47,ESE,113,0.0,0.0,90,0.06,,,0.24,WUHU216HW,2013-04-14 23:09:00,
2013-04-14 18:14:00,33.6,30.9,29.46,ESE,113,0.0,0.0,90,0.04,,,0.24,WUHU216HW,2013-04-14 23:14:00,
2013-04-14 18:19:00,33.6,30.9,29.46,ESE,113,0.0,0.0,90,0.04,,,0.24,WUHU216HW,2013-04-14 23:19:00,
2013-04-14 18:24:00,33.8,31.1,29.46,ESE,113,0.0,0.0,90,0.04,,,0.24,WUHU216HW,2013-04-14 23:24:00,
2013-04-14 18:29:00,33.6,30.9,29.47,ESE,113,0.0,0.0,90,0.04,,,0.24,WUHU216HW,2013-04-14 23:29:00,
2013-04-14 18:34:00,33.8,30.8,29.45,ESE,113,0.0,0.0,89,0.04,,,0.24,WUHU216HW,2013-04-14 23:34:00,
2013-04-14 18:39:00,33.6,30.6,29.45,ESE,113,0.0,0.0,89,0.04,,,0.24,WUHU216HW,2013-04-14 23:39:00,
2013-04-14 18:44:00,33.8,30.8,29.46,ESE,113,0.0,0.0,89,0.02,,,0.24,WUHU216HW,2013-04-14 23:44:00,
2013-04-14 18:49:00,33.6,30.6,29.44,ESE,113,0.0,0.0,89,0.00,,,0.24,WUHU216HW,2013-04-14 23:49:00,
2013-04-14 18:54:00,33.8,30.8,29.45,ENE,68,0.0,0.0,89,0.02,,,0.27,WUHU216HW,2013-04-14 23:54:00,
2013-04-14 18:59:00,33.8,31.1,29.45,ENE,68,0.0,0.0,90,0.02,,,0.27,WUHU216HW,2013-04-14 23:59:00,
2013-04-14 19:04:00,33.6,30.9,29.43,ENE,68,0.0,0.0,90,0.02,,,0.27,WUHU216HW,2013-04-15 00:04:00,
2013-04-14 19:09:00,33.6,30.9,29.43,ENE,68,0.0,0.0,90,0.04,,,0.29,WUHU216HW,2013-04-15 00:09:00,
2013-04-14 19:14:00,33.9,31.2,29.43,East,90,0.0,0.0,90,0.04,,,0.29,WUHU216HW,2013-04-15 00:14:00,
2013-04-14 19:19:00,33.9,31.2,29.45,East,90,0.0,0.0,90,0.04,,,0.29,WUHU216HW,2013-04-15 00:19:00,
2013-04-14 19:24:00,34.1,31.4,29.45,ESE,113,0.0,0.0,90,0.04,,,0.29,WUHU216HW,2013-04-15 00:24:00,
2013-04-14 19:29:00,34.3,31.6,29.45,ENE,68,0.0,0.0,90,0.04,,,0.29,WUHU216HW,2013-04-15 00:29:00,
2013-04-14 19:34:00,34.3,31.6,29.43,ENE,68,0.0,0.0,90,0.04,,,0.29,WUHU216HW,2013-04-15 00:34:00,
2013-04-14 19:39:00,34.3,31.6,29.44,NE,45,0.0,0.0,90,0.04,,,0.29,WUHU216HW,2013-04-15 00:39:00,
2013-04-14 19:44:00,34.3,31.6,29.44,ESE,113,0.0,0.0,90,0.04,,,0.29,WUHU216HW,2013-04-15 00:44:00,
2013-04-14 19:49:00,34.3,31.6,29.45,SE,135,0.0,0.0,90,0.02,,,0.29,WUHU216HW,2013-04-15 00:49:00,
2013-04-14 19:54:00,34.3,31.6,29.44,East,90,0.0,0.0,90,0.02,,,0.29,WUHU216HW,2013-04-15 00:54:00,
2013-04-14 19:59:00,34.3,31.6,29.45,ENE,68,0.0,0.0,90,0.04,,,0.31,WUHU216HW,2013-04-15 00:59:00,
2013-04-14 20:04:00,34.3,31.6,29.45,NE,45,0.0,0.0,90,0.04,,,0.31,WUHU216HW,2013-04-15 01:04:00,
2013-04-14 20:09:00,34.3,31.6,29.46,NE,45,0.0,0.0,90,0.02,,,0.31,WUHU216HW,2013-04-15 01:09:00,
2013-04-14 20:14:00,34.3,31.6,29.47,ESE,113,0.0,0.0,90,0.02,,,0.31,WUHU216HW,2013-04-15 01:14:00,
2013-04-14 20:19:00,34.3,31.6,29.48,SE,135,0.0,0.0,90,0.02,,,0.31,WUHU216HW,2013-04-15 01:19:00,
2013-04-14 20:24:00,34.3,31.6,29.47,East,90,0.0,0.0,90,0.02,,,0.31,WUHU216HW,2013-04-15 01:24:00,
2013-04-14 20:29:00,34.3,31.6,29.47,ESE,113,0.0,0.0,90,0.02,,,0.31,WUHU216HW,2013-04-15 01:29:00,
2013-04-14 20:34:00,34.3,31.6,29.47,ESE,113,0.0,0.0,90,0.02,,,0.31,WUHU216HW,2013-04-15 01:34:00,
2013-04-14 20:39:00,34.3,31.6,29.46,ESE,113,0.0,0.0,90,0.02,,,0.31,WUHU216HW,2013-04-15 01:39:00,
2013-04-14 20:44:00,34.5,31.8,29.46,ESE,113,0.0,0.0,90,0.02,,,0.31,WUHU216HW,2013-04-15 01:44:00,
2013-04-14 20:49:00,34.8,32.1,29.47,ESE,113,0.0,0.0,90,0.02,,,0.31,WUHU216HW,2013-04-15 01:49:00,
2013-04-14 20:54:00,34.8,32.1,29.48,ESE,113,0.0,0.0,90,0.02,,,0.31,WUHU216HW,2013-04-15 01:54:00,
2013-04-14 20:59:00,34.8,32.1,29.50,SE,135,0.0,0.0,90,0.00,,,0.31,WUHU216HW,2013-04-15 01:59:00,
2013-04-14 21:04:00,35.2,32.5,29.51,South,180,0.0,0.0,90,0.00,,,0.31,WUHU216HW,2013-04-15 02:04:00,
2013-04-14 21:09:00,35.2,32.5,29.51,ESE,113,0.0,0.0,90,0.00,,,0.31,WUHU216HW,2013-04-15 02:09:00,
2013-04-14 21:14:00,35.2,32.5,29.50,ESE,113,0.0,0.0,90,0.00,,,0.31,WUHU216HW,2013-04-15 02:14:00,
2013-04-14 21:19:00,35.2,32.5,29.50,ESE,113,0.0,0.0,90,0.00,,,0.31,WUHU216HW,2013-04-15 02:19:00,
2013-04-14 21:24:00,35.2,32.5,29.50,ESE,113,0.0,0.0,90,0.02,,,0.33,WUHU216HW,2013-04-15 02:24:00,
2013-04-14 21:29:00,35.2,32.5,29.51,ESE,113,0.0,0.0,90,0.02,,,0.33,WUHU216HW,2013-04-15 02:29:00,
2013-04-14 21:34:00,35.2,32.5,29.50,East,90,0.0,0.0,90,0.02,,,0.33,WUHU216HW,2013-04-15 02:34:00,
2013-04-14 21:39:00,35.2,32.5,29.51,ESE,113,0.0,0.0,90,0.02,,,0.33,WUHU216HW,2013-04-15 02:39:00,
2013-04-14 21:44:00,35.4,32.7,29.51,SSE,158,0.0,0.0,90,0.02,,,0.33,WUHU216HW,2013-04-15 02:44:00,
2013-04-14 21:49:00,35.4,32.7,29.51,WSW,248,0.0,0.0,90,0.02,,,0.33,WUHU216HW,2013-04-15 02:49:00,
2013-04-14 21:54:00,35.4,32.7,29.50,SSE,158,0.0,0.0,90,0.02,,,0.33,WUHU216HW,2013-04-15 02:54:00,
2013-04-14 21:59:00,35.4,32.7,29.51,SSE,158,0.0,0.0,90,0.02,,,0.33,WUHU216HW,2013-04-15 02:59:00,
2013-04-14 22:04:00,35.4,32.7,29.52,South,180,0.0,0.0,90,0.02,,,0.33,WUHU216HW,2013-04-15 03:04:00,
2013-04-14 22:09:00,35.4,32.7,29.51,SSE,158,0.0,0.0,90,0.02,,,0.33,WUHU216HW,2013-04-15 03:09:00,
2013-04-14 22:14:00,35.7,33.0,29.51,SSE,158,0.0,0.0,90,0.02,,,0.33,WUHU216HW,2013-04-15 03:14:00,
2013-04-14 22:19:00,35.7,33.0,29.51,SSE,158,0.0,0.0,90,0.02,,,0.33,WUHU216HW,2013-04-15 03:19:00,
2013-04-14 22:24:00,35.7,33.0,29.52,SW,225,0.0,0.0,90,0.00,,,0.33,WUHU216HW,2013-04-15 03:24:00,
2013-04-14 22:29:00,36.1,33.4,29.52,SSW,203,0.0,0.0,90,0.00,,,0.33,WUHU216HW,2013-04-15 03:29:00,
2013-04-14 22:34:00,36.1,33.4,29.52,SW,225,0.0,0.0,90,0.00,,,0.33,WUHU216HW,2013-04-15 03:34:00,
2013-04-14 22:39:00,36.1,33.4,29.52,SW,225,0.0,0.0,90,0.00,,,0.33,WUHU216HW,2013-04-15 03:39:00,
2013-04-14 22:44:00,36.1,33.4,29.52,SSW,203,0.0,0.0,90,0.00,,,0.33,WUHU216HW,2013-04-15 03:44:00,
2013-04-14 22:49:00,36.1,33.4,29.52,South,180,0.0,0.0,90,0.00,,,0.33,WUHU216HW,2013-04-15 03:49:00,
2013-04-14 22:54:00,36.1,33.4,29.51,SSW,203,0.0,0.0,90,0.00,,,0.33,WUHU216HW,2013-04-15 03:54:00,
2013-04-14 22:59:00,35.9,33.2,29.52,SW,225,0.0,0.0,90,0.00,,,0.33,WUHU216HW,2013-04-15 03:59:00,
2013-04-14 23:00:00,35.9,33.2,29.52,SW,225,0.0,0.0,90,0.00,,,0.33,WUHU216HW,2013-04-15 04:00:00,
2013-04-14 23:05:00,35.9,33.2,29.52,SW,225,0.0,0.0,90,0.00,,,0.33,WUHU216HW,2013-04-15 04:05:00,
2013-04-14 23:10:00,35.7,33.0,29.52,SSW,203,0.0,0.0,90,0.00,,,0.33,WUHU216HW,2013-04-15 04:10:00,
2013-04-14 23:15:00,35.7,33.0,29.51,SSW,203,0.0,0.0,90,0.00,,,0.33,WUHU216HW,2013-04-15 04:15:00,
2013-04-14 23:20:00,35.4,32.7,29.51,SSW,203,0.0,0.0,90,0.00,,,0.33,WUHU216HW,2013-04-15 04:20:00,
2013-04-14 23:25:00,35.4,32.7,29.52,South,180,0.0,0.0,90,0.00,,,0.33,WUHU216HW,2013-04-15 04:25:00,
2013-04-14 23:30:00,35.4,32.7,29.52,SSW,203,0.0,0.0,90,0.00,,,0.33,WUHU216HW,2013-04-15 04:30:00,
2013-04-14 23:35:00,35.4,32.7,29.52,SSE,158,0.0,0.0,90,0.00,,,0.33,WUHU216HW,2013-04-15 04:35:00,
2013-04-14 23:40:00,35.2,32.5,29.52,SSE,158,0.0,0.0,90,0.00,,,0.33,WUHU216HW,2013-04-15 04:40:00,
2013-04-14 23:45:00,34.8,32.1,29.52,SSE,158,0.0,0.0,90,0.00,,,0.33,WUHU216HW,2013-04-15 04:45:00,
2013-04-14 23:50:00,34.7,32.0,29.52,SSE,158,0.0,0.0,90,0.00,,,0.33,WUHU216HW,2013-04-15 04:50:00,
2013-04-14 23:55:00,34.5,31.8,29.53,SSW,203,0.0,0.0,90,0.00,,,0.33,WUHU216HW,2013-04-15 04:55:00,